Location: Bouchavesnes-Bergen
(49.9859°N, 2.9203°E)
Time: 22:58:08
(UTC+00:00)

Cosmos 2221 - Pass Details

Date: 09 March 2021
Orbit: 591 x 616 km, 82.5° (Epoch: 13 April)

Event Time Altitude Azimuth Distance (km) Brightness Sun altitude
Exits shadow 02:53:30 31° 55° (NE) 1,082 4.3 -31.5°
Drops below altitude 10° 02:56:17 10° 24° (NNE) 1,969 5.8 -31.2°
Sets 02:58:36 0° 17° (NNE) 2,874 6.7 -30.9°
